When you browse on this site, cookies collect data to enhance your experience and personalize the content and advertising you see.
Visit our Privacy Policy to learn more. By continuing to use the site, you agree to this use of cookies and data.
  • In Lithuania
  • List of Countries
  • For 7 days
  • Water Temperature
  • Satellite Maps
  • Weather Map
  • Weather Widgets
  • user-avatar
    Login

    Hourly Weather Verhnyaya Zaimka

    Today, 26 May, Sunday

    Time Temperature Precipitation Wind Pressure Humidity
    00:00 +13°C° 0 mm 3 mps 743 mmHg 93%
    01:00 +12°C° 1.7 mm 3 mps 743 mmHg 94%
    02:00 +11°C° 1.7 mm 3 mps 743 mmHg 95%
    03:00 +9°C° 1.7 mm 3 mps 743 mmHg 96%
    04:00 +7°C° 0.8 mm 4 mps 743 mmHg 94%
    05:00 +5°C° 0.8 mm 4 mps 743 mmHg 92%
    06:00 +3°C° 0.8 mm 5 mps 743 mmHg 90%
    07:00 +2°C° 1.8 mm 6 mps 744 mmHg 89%
    08:00 +2°C° 1.8 mm 6 mps 744 mmHg 88%
    09:00 +1°C° 1.8 mm 6 mps 745 mmHg 87%
    10:00 +1°C° 0.5 mm 6 mps 746 mmHg 85%
    11:00 +1°C° 0.5 mm 6 mps 747 mmHg 82%
    12:00 +1°C° 0.5 mm 6 mps 749 mmHg 79%
    13:00 +2°C° 0.3 mm 5 mps 750 mmHg 74%
    14:00 +3°C° 0.3 mm 5 mps 751 mmHg 69%
    15:00 +5°C° 0.3 mm 5 mps 752 mmHg 63%
    16:00 +5°C° 0.2 mm 4 mps 752 mmHg 64%
    17:00 +6°C° 0.2 mm 4 mps 753 mmHg 65%
    18:00 +7°C° 0.2 mm 3 mps 754 mmHg 65%
    19:00 +5°C° 0.2 mm 3 mps 754 mmHg 70%
    20:00 +4°C° 0.2 mm 3 mps 755 mmHg 74%
    21:00 +4°C° 0.2 mm 3 mps 755 mmHg 79%
    22:00 +3°C° 0 mm 3 mps 756 mmHg 81%
    23:00 +3°C° 0 mm 3 mps 756 mmHg 83%

    Tomorrow, 27 May, Monday

    Time Temperature Precipitation Wind Pressure Humidity
    00:00 +2°C° 0 mm 3 mps 757 mmHg 85%
    01:00 +3°C° 0 mm 2 mps 757 mmHg 87%
    02:00 +2°C° 0 mm 2 mps 758 mmHg 89%
    03:00 +2°C° 0 mm 2 mps 758 mmHg 91%
    04:00 +3°C° 0 mm 2 mps 759 mmHg 89%
    05:00 +3°C° 0 mm 2 mps 759 mmHg 87%
    06:00 +3°C° 0 mm 3 mps 760 mmHg 85%
    07:00 +5°C° 0 mm 3 mps 760 mmHg 77%
    08:00 +7°C° 0 mm 3 mps 761 mmHg 69%
    09:00 +8°C° 0 mm 3 mps 761 mmHg 62%
    10:00 +10°C° 0 mm 3 mps 761 mmHg 56%
    11:00 +11°C° 0 mm 3 mps 761 mmHg 50%
    12:00 +13°C° 0 mm 3 mps 761 mmHg 45%
    13:00 +13°C° 0 mm 4 mps 761 mmHg 43%
    14:00 +14°C° 0 mm 4 mps 760 mmHg 41%
    15:00 +14°C° 0 mm 4 mps 760 mmHg 40%
    16:00 +14°C° 0 mm 4 mps 760 mmHg 41%
    17:00 +16°C° 0 mm 3 mps 760 mmHg 42%
    18:00 +16°C° 0 mm 3 mps 760 mmHg 44%
    19:00 +14°C° 0 mm 3 mps 760 mmHg 50%
    20:00 +12°C° 0 mm 3 mps 760 mmHg 56%
    21:00 +11°C° 0 mm 3 mps 760 mmHg 61%
    22:00 +10°C° 0 mm 3 mps 760 mmHg 63%
    23:00 +10°C° 0 mm 3 mps 759 mmHg 66%

    Day after tomorrow, 28 May, Tuesday

    Time Temperature Precipitation Wind Pressure Humidity
    00:00 +9°C° 0 mm 3 mps 759 mmHg 68%
    01:00 +9°C° 0 mm 3 mps 759 mmHg 69%
    02:00 +8°C° 0 mm 4 mps 759 mmHg 71%
    03:00 +10°C° 0 mm 4 mps 758 mmHg 73%
    04:00 +8°C° 0.5 mm 4 mps 758 mmHg 79%
    05:00 +8°C° 0.5 mm 4 mps 758 mmHg 85%
    06:00 +8°C° 0.5 mm 4 mps 757 mmHg 92%
    07:00 +10°C° 0.8 mm 4 mps 757 mmHg 92%
    08:00 +10°C° 0.8 mm 4 mps 757 mmHg 92%
    09:00 +10°C° 0.8 mm 4 mps 756 mmHg 92%
    10:00 +13°C° 0.2 mm 4 mps 756 mmHg 83%
    11:00 +17°C° 0.2 mm 4 mps 755 mmHg 74%
    12:00 +20°C° 0.2 mm 5 mps 755 mmHg 65%
    13:00 +20°C° 0.3 mm 5 mps 754 mmHg 65%
    14:00 +20°C° 0.3 mm 5 mps 754 mmHg 65%
    15:00 +20°C° 0.3 mm 4 mps 753 mmHg 66%
    16:00 +21°C° 0.4 mm 4 mps 753 mmHg 64%
    17:00 +21°C° 0.4 mm 4 mps 753 mmHg 62%
    18:00 +22°C° 0.4 mm 3 mps 753 mmHg 61%
    19:00 +20°C° 0 mm 3 mps 753 mmHg 61%
    20:00 +19°C° 0 mm 3 mps 753 mmHg 61%
    21:00 +17°C° 0 mm 3 mps 753 mmHg 61%
    22:00 +17°C° 0 mm 3 mps 753 mmHg 61%
    23:00 +15°C° 0 mm 4 mps 753 mmHg 61%

    29 May, Wednesday

    Time Temperature Precipitation Wind Pressure Humidity
    00:00 +15°C° 0 mm 4 mps 753 mmHg 61%
    01:00 +15°C° 0 mm 4 mps 753 mmHg 62%
    02:00 +14°C° 0 mm 3 mps 752 mmHg 63%
    03:00 +14°C° 0 mm 3 mps 752 mmHg 65%
    04:00 +16°C° 0 mm 3 mps 752 mmHg 65%
    05:00 +16°C° 0 mm 3 mps 752 mmHg 65%
    06:00 +16°C° 0 mm 3 mps 752 mmHg 65%
    07:00 +17°C° 0 mm 4 mps 752 mmHg 61%
    08:00 +19°C° 0 mm 4 mps 751 mmHg 57%
    09:00 +20°C° 0 mm 4 mps 751 mmHg 53%
    10:00 +22°C° 0 mm 4 mps 751 mmHg 48%
    11:00 +25°C° 0 mm 5 mps 750 mmHg 43%
    12:00 +27°C° 0 mm 5 mps 750 mmHg 38%
    13:00 +26°C° 0 mm 4 mps 750 mmHg 43%
    14:00 +25°C° 0 mm 4 mps 749 mmHg 48%
    15:00 +22°C° 0 mm 3 mps 749 mmHg 53%
    16:00 +21°C° 0.7 mm 3 mps 749 mmHg 63%
    17:00 +19°C° 0.7 mm 3 mps 749 mmHg 74%
    18:00 +18°C° 0.7 mm 3 mps 749 mmHg 84%
    19:00 +17°C° 0 mm 3 mps 749 mmHg 87%
    20:00 +16°C° 0 mm 2 mps 748 mmHg 90%
    21:00 +15°C° 0 mm 2 mps 748 mmHg 93%
    22:00 +15°C° 0 mm 1 mps 748 mmHg 93%
    23:00 +14°C° 0 mm 1 mps 748 mmHg 94%

    30 May, Thursday

    Time Temperature Precipitation Wind Pressure Humidity
    00:00 +14°C° 0 mm 1 mps 748 mmHg 95%
    01:00 +14°C° 0 mm 1 mps 747 mmHg 95%
    02:00 +13°C° 0 mm 1 mps 747 mmHg 95%
    03:00 +13°C° 0 mm 1 mps 747 mmHg 95%
    04:00 +13°C° 0.3 mm 2 mps 747 mmHg 93%
    05:00 +12°C° 0.3 mm 3 mps 747 mmHg 91%
    06:00 +12°C° 0.3 mm 3 mps 747 mmHg 89%
    07:00 +12°C° 0.5 mm 3 mps 747 mmHg 88%
    08:00 +12°C° 0.5 mm 4 mps 746 mmHg 87%
    09:00 +12°C° 0.5 mm 4 mps 746 mmHg 86%
    10:00 +12°C° 0.4 mm 3 mps 746 mmHg 81%
    11:00 +13°C° 0.4 mm 3 mps 746 mmHg 75%
    12:00 +14°C° 0.4 mm 3 mps 746 mmHg 69%
    13:00 +17°C° 0 mm 3 mps 746 mmHg 60%
    14:00 +18°C° 0 mm 4 mps 746 mmHg 50%
    15:00 +19°C° 0 mm 4 mps 746 mmHg 41%
    16:00 +19°C° 0 mm 4 mps 746 mmHg 43%
    17:00 +18°C° 0 mm 4 mps 746 mmHg 46%
    18:00 +17°C° 0 mm 4 mps 746 mmHg 48%
    19:00 +15°C° 0.1 mm 4 mps 747 mmHg 55%
    20:00 +13°C° 0.1 mm 4 mps 747 mmHg 61%
    21:00 +12°C° 0.1 mm 3 mps 747 mmHg 68%
    22:00 +11°C° 0 mm 3 mps 747 mmHg 68%
    23:00 +10°C° 0 mm 3 mps 747 mmHg 68%

    31 May, Friday

    Time Temperature Precipitation Wind Pressure Humidity
    00:00 +9°C° 0 mm 3 mps 747 mmHg 69%
    01:00 +8°C° 0 mm 3 mps 747 mmHg 73%
    02:00 +7°C° 0 mm 3 mps 747 mmHg 77%
    03:00 +6°C° 0 mm 2 mps 747 mmHg 81%
    04:00 +7°C° 0 mm 3 mps 747 mmHg 80%
    05:00 +7°C° 0 mm 3 mps 747 mmHg 79%
    06:00 +8°C° 0 mm 3 mps 747 mmHg 77%
    07:00 +9°C° 0 mm 3 mps 747 mmHg 72%
    08:00 +10°C° 0 mm 4 mps 747 mmHg 67%
    09:00 +11°C° 0 mm 4 mps 747 mmHg 62%
    10:00 +11°C° 0 mm 4 mps 747 mmHg 63%
    11:00 +11°C° 0 mm 4 mps 747 mmHg 63%
    12:00 +10°C° 0 mm 4 mps 747 mmHg 63%
    13:00 +10°C° 0.2 mm 4 mps 747 mmHg 68%
    14:00 +10°C° 0.2 mm 4 mps 747 mmHg 74%
    15:00 +9°C° 0.2 mm 3 mps 747 mmHg 80%
    16:00 +10°C° 0 mm 3 mps 747 mmHg 76%
    17:00 +11°C° 0 mm 3 mps 747 mmHg 73%
    18:00 +12°C° 0 mm 3 mps 747 mmHg 69%
    19:00 +12°C° 0 mm 3 mps 747 mmHg 72%
    20:00 +11°C° 0 mm 3 mps 747 mmHg 74%
    21:00 +11°C° 0 mm 3 mps 747 mmHg 77%
    22:00 +11°C° 0 mm 3 mps 747 mmHg 77%
    23:00 +11°C° 0 mm 3 mps 747 mmHg 77%
    Show more